Temp
56 56 56 56 56 55 55 54 51 47 49 55 53 58 56 55 54 54 54 53 54 55 54 53 53 53 53 53 54 54 54 54 55 55 56 57 58 59
56 55 55 55 54 53 53 53 52 49 45 53 53 54 54 56 54 53 53 51 54 55 54 52 52 51 52 52 52 52 53 53 53 54 55 55 56 57
54 53 52 53 52 52 51 51 49 49 44 48 51 52 50 50 51 52 51 51 52 53 53 52 51 51 51 51 51 51 51 52 52 52 53 53 54 55
52 51 50 52 50 50 49 48 48 48 45 42 47 47 47 48 48 47 50 53 50 53 52 52 51 51 51 50 50 51 50 50 50 50 51 51 52 53
50 50 49 49 49 47 48 47 47 49 46 44 43 46 45 46 45 46 47 46 51 50 51 51 51 51 50 50 50 50 50 49 49 49 49 49 50 51
49 48 48 47 47 46 47 46 47 44 44 43 42 43 43 45 43 41 41 44 44 49 50 49 50 50 50 50 49 49 49 48 48 48 48 48 48 49
47 47 46 43 43 43 44 44 43 42 42 41 40 41 41 41 40 41 40 41 42 44 43 44 44 44 45 48 47 48 48 48 47 47 47 48 48 48
45 45 46 42 44 43 43 43 43 40 39 39 39 38 39 40 41 39 38 36 34 43 40 40 43 41 43 44 47 48 48 47 47 47 47 47 47 47
44 44 44 46 43 43 44 44 45 45 44 40 37 38 39 41 40 38 37 36 36 40 40 36 41 39 42 46 46 46 46 46 46 46 46 46 46 46
43 42 42 42 43 41 41 41 42 43 43 44 41 41 41 41 40 40 38 37 39 40 40 32 38 37 40 41 44 45 46 45 45 45 46 46 46 46
42 42 41 41 42 42 40 39 40 41 46 45 45 44 44 44 43 39 34 33 31 34 37 34 35 34 36 37 40 44 44 44 44 45 45 45 45 45
40 41 41 40 41 41 39 37 36 38 39 40 40 42 43 42 43 39 35 31 31 30 34 31 31 31 28 34 36 38 39 42 43 44 44 44 44 40
39 39 41 42 41 41 41 39 37 39 39 38 38 38 38 38 37 38 37 34 31 31 36 35 32 31 29 29 31 35 36 37 38 39 42 42 43 42
37 39 39 41 41 41 40 41 41 40 37 35 33 33 33 32 34 34 35 35 35 34 35 34 30 30 28 27 27 31 33 35 36 35 36 40 40 41
39 40 40 40 40 40 41 40 39 35 33 31 31 31 31 32 32 32 33 33 33 33 36 33 31 30 30 27 26 28 29 31 33 33 34 34 34 35
40 38 40 39 39 39 39 38 36 34 32 31 30 30 32 31 30 31 29 30 29 28 33 33 32 30 28 29 29 27 29 26 31 32 33 34 34 36
38 36 36 35 34 34 34 34 33 33 31 31 30 30 30 30 30 31 29 28 26 26 27 30 31 31 30 28 25 27 27 28 30 31 31 30 32 35
36 34 33 33 32 32 31 30 31 32 31 31 30 30 29 28 27 28 29 27 25 26 26 27 28 27 27 28 34 27 28 27 29 30 30 29 30 34
32 32 31 31 30 30 30 30 29 30 30 29 29 29 29 28 28 27 26 26 26 27 27 27 26 25 23 20 26 37 26 27 28 27 29 30 28 31
31 30 30 30 30 29 29 28 28 28 28 28 28 29 28 27 26 26 27 26 26 26 26 27 26 26 24 22 23 27 33 27 29 28 27 29 32 38
30 30 31 30 30 29 29 29 28 28 28 28 27 27 27 27 25 26 27 30 29 26 24 25 27 35 29 27 23 23 28 35 34 29 29 27 27 25
30 29 30 30 29 29 28 28 28 27 27 27 27 27 27 27 26 26 26 26 26 26 26 27 28 28 26 24 22 23 24 28 32 37 36 33 27 20
29 29 29 29 29 29 28 28 28 27 27 26 26 26 27 25 27 27 27 27 26 26 26 26 26 27 25 25 26 24 21 22 22 29 30 36 35 35
MSLP
1023.16 1023.44 1023.67 1024.01 1024.10 1024.22 1024.32 1024.37 1024.36 1024.06 1023.77 1023.61 1024.02 1024.02 1024.49 1024.82 1025.00 1025.05 1024.90 1024.73 1024.54 1024.20 1024.04 1023.90 1023.73 1023.40 1022.97 1022.51 1022.01 1021.61 1021.21 1020.78 1020.28 1019.72 1019.14 1018.52 1017.98 1017.50
1023.35 1023.60 1023.98 1024.26 1024.47 1024.69 1024.80 1024.83 1024.90 1024.96 1024.76 1024.19 1024.37 1024.54 1024.77 1024.92 1024.85 1024.92 1024.76 1024.66 1024.28 1024.07 1023.87 1023.95 1023.74 1023.33 1022.95 1022.56 1022.02 1021.64 1021.17 1020.71 1020.24 1019.73 1019.17 1018.64 1018.03 1017.46
1023.70 1024.02 1024.37 1024.54 1024.75 1024.93 1025.18 1025.25 1025.31 1025.43 1025.38 1025.03 1024.92 1024.88 1025.02 1025.10 1025.08 1024.96 1024.80 1024.50 1024.16 1023.94 1023.93 1023.82 1023.56 1023.14 1022.70 1022.40 1021.95 1021.64 1021.19 1020.68 1020.20 1019.73 1019.17 1018.59 1018.02 1017.39
1024.24 1024.44 1024.68 1024.86 1025.11 1025.34 1025.43 1025.49 1025.64 1025.65 1025.68 1025.57 1025.47 1025.35 1025.34 1025.31 1025.23 1025.18 1024.92 1024.42 1024.29 1023.94 1023.86 1023.56 1023.24 1022.88 1022.52 1022.23 1021.85 1021.36 1020.94 1020.52 1020.11 1019.63 1019.04 1018.47 1017.91 1017.33
1024.51 1024.71 1024.91 1025.09 1025.35 1025.59 1025.70 1025.81 1025.84 1025.78 1025.80 1025.75 1025.59 1025.48 1025.37 1025.27 1025.25 1025.17 1024.88 1024.71 1024.38 1024.01 1023.69 1023.44 1023.12 1022.70 1022.29 1021.90 1021.46 1021.03 1020.62 1020.21 1019.83 1019.34 1018.79 1018.24 1017.70 1017.14
1024.98 1025.17 1025.19 1025.49 1025.85 1025.97 1025.97 1025.96 1025.86 1025.89 1025.82 1025.78 1025.63 1025.50 1025.34 1025.14 1025.08 1025.10 1024.92 1024.72 1024.37 1023.97 1023.62 1023.35 1022.84 1022.43 1022.02 1021.62 1021.18 1020.72 1020.24 1019.98 1019.67 1019.16 1018.56 1017.97 1017.40 1016.74
1025.11 1025.31 1025.84 1026.27 1026.46 1026.77 1026.55 1026.37 1026.26 1026.15 1026.06 1025.91 1025.65 1025.41 1025.27 1025.07 1025.03 1024.99 1024.80 1024.53 1024.38 1024.00 1023.56 1023.12 1022.65 1022.34 1021.86 1021.32 1020.85 1020.27 1019.96 1019.59 1019.24 1018.74 1018.11 1017.48 1016.84 1016.34
1025.32 1025.63 1025.82 1026.47 1026.40 1026.73 1026.75 1026.79 1026.78 1026.49 1026.30 1026.04 1025.85 1025.76 1025.45 1025.29 1025.07 1024.99 1024.83 1024.61 1024.24 1023.89 1023.53 1022.92 1022.57 1022.14 1021.59 1021.02 1020.53 1019.98 1019.53 1019.18 1018.70 1018.11 1017.59 1017.01 1016.49 1015.94
1025.66 1025.90 1025.75 1026.11 1026.49 1026.52 1026.37 1026.43 1026.32 1026.14 1026.06 1026.41 1026.06 1025.88 1025.51 1025.31 1025.15 1024.98 1024.84 1024.64 1024.21 1023.74 1023.42 1022.49 1022.22 1021.81 1021.37 1020.72 1020.28 1019.81 1019.25 1018.61 1018.06 1017.62 1017.11 1016.52 1015.93 1015.40
1025.89 1025.93 1026.16 1026.32 1026.50 1026.83 1026.56 1026.31 1026.15 1025.83 1025.66 1025.80 1025.87 1025.76 1025.57 1025.40 1025.32 1025.07 1024.85 1024.56 1024.01 1023.50 1023.23 1022.51 1022.15 1021.66 1021.05 1020.80 1020.29 1019.65 1018.88 1018.34 1017.70 1017.20 1016.39 1015.81 1015.14 1014.62
1025.71 1025.92 1026.52 1026.63 1026.48 1026.64 1026.57 1026.17 1025.85 1025.68 1025.31 1025.28 1025.30 1025.27 1025.17 1025.03 1024.93 1024.87 1024.78 1024.48 1023.82 1023.45 1023.29 1022.90 1022.19 1021.68 1021.08 1020.38 1019.74 1019.29 1018.64 1018.15 1017.32 1016.52 1015.82 1015.11 1014.44 1013.94
1025.60 1026.08 1026.47 1026.81 1026.58 1026.50 1026.40 1026.04 1025.78 1025.54 1025.41 1025.34 1025.23 1024.92 1024.78 1024.69 1024.59 1024.67 1024.58 1024.35 1023.96 1023.39 1023.18 1023.05 1022.41 1022.17 1020.72 1020.11 1019.53 1019.01 1018.40 1017.81 1016.99 1016.18 1015.40 1014.60 1013.94 1013.46
1025.78 1025.97 1026.22 1026.39 1026.38 1026.29 1026.02 1025.87 1025.65 1025.58 1025.49 1025.31 1025.02 1024.88 1024.75 1024.61 1024.47 1024.42 1024.32 1024.22 1023.86 1023.28 1022.97 1022.75 1022.27 1021.91 1021.58 1019.98 1019.26 1018.85 1018.30 1017.37 1016.59 1015.70 1014.98 1014.28 1013.54 1012.93
1025.87 1026.06 1026.21 1026.12 1026.08 1025.89 1025.77 1025.56 1025.56 1025.47 1025.39 1025.19 1025.09 1025.02 1024.84 1024.66 1024.55 1024.41 1024.29 1024.04 1023.71 1023.28 1022.87 1022.88 1022.26 1021.88 1021.16 1020.15 1019.25 1018.54 1018.01 1017.17 1016.39 1015.52 1014.71 1013.89 1013.23 1012.32
1025.92 1025.94 1026.00 1025.86 1025.72 1025.55 1025.34 1025.41 1025.45 1025.44 1025.27 1025.33 1025.22 1025.00 1024.82 1024.77 1024.56 1024.31 1023.94 1023.53 1023.24 1022.93 1022.48 1022.11 1021.86 1021.34 1021.01 1020.19 1019.16 1018.43 1017.79 1016.71 1016.13 1015.27 1014.53 1013.81 1012.98 1011.83
1025.57 1025.64 1025.51 1025.61 1025.45 1025.34 1025.23 1025.17 1025.27 1025.29 1025.33 1025.39 1025.35 1025.21 1025.00 1024.78 1024.61 1024.35 1023.93 1023.52 1023.06 1022.44 1021.93 1021.45 1021.10 1020.91 1020.46 1019.99 1019.24 1018.17 1017.64 1017.08 1015.79 1015.08 1014.22 1013.33 1012.40 1011.48
1025.61 1025.58 1025.47 1025.47 1025.34 1025.29 1025.29 1025.34 1025.42 1025.47 1025.50 1025.43 1025.21 1024.94 1024.68 1024.47 1024.23 1023.97 1023.72 1023.30 1022.85 1022.14 1021.50 1021.02 1020.60 1020.19 1019.85 1019.48 1018.61 1017.92 1017.09 1016.41 1015.63 1014.87 1014.10 1013.12 1012.10 1011.21
1025.52 1025.50 1025.48 1025.42 1025.49 1025.52 1025.68 1025.87 1025.79 1025.56 1025.47 1025.37 1025.14 1024.77 1024.48 1024.29 1023.90 1023.52 1023.31 1023.10 1022.65 1021.99 1021.38 1020.74 1020.14 1019.52 1018.87 1018.37 1017.83 1017.03 1016.49 1016.14 1015.35 1014.67 1013.96 1013.08 1011.79 1011.00
1025.55 1025.49 1025.56 1025.64 1025.71 1025.74 1025.83 1025.84 1025.68 1025.58 1025.56 1025.31 1024.92 1024.54 1024.21 1023.87 1023.56 1023.31 1022.86 1022.45 1021.98 1021.52 1020.98 1020.30 1019.87 1019.27 1018.30 1017.48 1016.98 1016.65 1016.34 1015.78 1015.15 1014.37 1013.62 1012.97 1012.23 1011.16
1025.47 1025.60 1025.73 1025.85 1025.92 1025.95 1025.98 1025.87 1025.71 1025.55 1025.35 1025.00 1024.63 1024.31 1024.10 1023.77 1023.33 1022.89 1022.45 1022.01 1021.46 1020.84 1020.28 1019.82 1019.37 1018.84 1018.31 1017.62 1016.74 1016.14 1015.96 1015.45 1014.82 1014.10 1013.42 1012.73 1012.05 1011.06
1025.48 1025.64 1025.78 1025.92 1025.99 1025.95 1025.86 1025.69 1025.52 1025.27 1025.03 1024.75 1024.49 1024.17 1023.84 1023.49 1023.01 1022.55 1022.06 1021.46 1020.85 1020.38 1019.82 1019.20 1018.57 1017.90 1017.67 1017.43 1016.81 1015.94 1015.13 1014.69 1014.16 1013.94 1013.36 1012.85 1012.21 1011.40
1025.61 1025.87 1025.90 1025.93 1025.87 1025.73 1025.62 1025.48 1025.26 1025.01 1024.79 1024.52 1024.19 1023.87 1023.52 1023.11 1022.56 1022.04 1021.51 1020.95 1020.48 1019.92 1019.26 1018.48 1017.87 1017.47 1017.16 1016.91 1016.31 1015.79 1015.05 1014.35 1013.79 1013.30 1013.01 1012.87 1012.57 1012.19
1025.66 1025.74 1025.83 1025.67 1025.54 1025.48 1025.38 1025.12 1024.84 1024.64 1024.44 1024.20 1023.84 1023.46 1023.06 1022.57 1022.06 1021.50 1020.90 1020.35 1019.79 1019.25 1018.72 1017.90 1017.32 1016.85 1016.53 1016.31 1015.83 1015.37 1014.87 1014.27 1013.79 1013.28 1012.79 1012.17 1012.03 1011.82
Wind_Speed
5 3 4 3 3 3 2 2 2 2 3 3 2 3 5 4 4 6 8 12 18 15 14 15 18 20 20 21 21 21 22 23 23 23 24 25 26 26
4 5 4 3 3 3 2 2 2 2 3 4 4 5 5 6 5 7 7 10 10 14 13 15 19 19 20 20 21 22 23 23 24 24 24 25 25 25
5 6 5 4 3 3 2 2 2 1 4 5 5 5 7 7 8 7 7 7 6 12 13 16 19 20 20 20 21 23 23 23 23 24 24 24 25 26
5 5 5 3 4 3 2 1 1 3 3 6 5 5 5 6 7 8 8 7 7 11 17 18 19 19 20 19 21 23 23 23 23 24 25 25 25 25
5 5 4 3 2 3 2 2 2 3 3 4 5 4 3 4 5 5 7 7 7 12 16 16 19 20 19 22 23 23 23 23 22 25 26 26 26 26
5 4 4 3 3 3 2 3 2 3 4 4 4 5 3 4 3 5 6 5 7 8 9 14 19 20 22 24 23 20 18 21 25 26 26 26 26 25
5 4 5 6 5 4 4 5 5 4 4 5 5 5 4 4 4 4 6 6 8 7 7 7 9 9 10 15 17 18 21 23 25 26 27 28 26 24
4 4 4 5 1 2 3 6 6 5 6 5 5 6 7 6 5 5 6 7 8 4 8 10 8 8 9 9 22 24 24 26 27 25 25 25 25 27
3 1 1 1 1 3 5 6 7 6 6 6 7 7 8 7 7 8 8 8 9 8 9 11 7 8 9 10 21 28 28 26 24 26 27 27 26 26
2 2 2 2 2 4 6 6 5 4 4 4 5 7 8 8 8 8 9 10 9 7 7 10 8 9 8 9 21 24 23 26 27 27 26 27 27 26
3 1 2 3 3 6 6 6 5 6 6 4 9 12 14 14 12 6 7 7 8 7 6 9 8 10 10 10 8 20 23 26 27 29 28 28 25 28
2 1 4 3 6 7 6 5 6 6 6 7 7 7 8 7 11 5 4 7 7 8 3 7 9 8 9 8 6 8 8 20 26 27 28 27 26 12
0 1 1 3 7 9 10 6 6 7 10 7 6 4 4 5 3 4 5 5 7 8 9 9 9 9 7 11 5 8 9 12 12 14 22 26 25 22
2 1 2 6 10 11 9 12 12 12 6 5 4 4 5 4 4 4 6 7 7 10 10 10 9 9 11 12 13 9 10 10 10 12 10 16 24 26
3 5 9 10 10 9 9 11 12 4 3 4 5 5 3 4 6 6 6 7 7 7 9 12 9 10 8 10 11 11 14 10 11 8 10 10 12 13
4 4 7 5 9 8 7 5 3 3 3 4 5 5 6 5 6 6 7 7 8 9 9 8 7 6 9 9 10 12 11 10 10 10 10 10 11 11
6 4 3 3 3 3 3 4 4 4 4 5 5 6 6 6 6 6 6 8 8 8 9 7 8 8 8 10 10 10 11 10 8 10 10 12 11 8
4 3 4 3 3 3 4 5 6 7 5 5 6 7 6 7 7 6 5 6 8 8 9 8 9 8 7 6 14 9 6 6 8 11 10 9 8 9
4 3 3 3 3 3 5 4 5 5 6 6 7 7 7 6 9 7 7 7 7 8 9 8 8 8 10 11 4 8 7 9 10 10 7 7 7 9
1 2 2 3 4 4 4 4 4 5 5 6 7 6 6 7 7 7 7 8 8 8 8 6 7 8 9 8 11 10 11 8 8 8 7 4 7 13
1 2 3 3 3 4 4 4 5 5 6 6 6 6 6 7 7 8 8 15 16 8 9 9 8 19 7 6 7 7 7 13 9 6 6 5 5 4
2 4 4 5 4 4 4 4 5 6 6 6 6 6 6 7 8 8 8 8 8 8 9 9 9 7 5 6 8 10 7 6 6 11 11 11 2 4
3 4 4 5 4 4 5 5 5 6 6 6 6 7 7 8 8 8 8 9 9 8 9 10 8 6 6 6 11 7 8 6 3 6 7 9 6 11
Wind_Direction
104 103 96 84 67 59 37 16 358 322 335 116 42 66 28 8 5 350 326 354 328 328 332 338 337 334 333 333 334 334 333 329 328 326 324 321 319 317
116 112 99 94 87 65 41 30 3 330 280 9 355 7 11 334 340 336 333 315 305 324 334 332 331 328 326 327 327 329 328 327 328 327 323 320 317 315
108 103 92 65 69 68 53 39 347 324 290 307 338 346 337 341 338 333 328 322 325 335 342 329 321 320 319 322 322 324 323 323 323 324 324 322 320 317
109 107 99 95 80 65 10 39 315 313 302 298 314 318 328 330 327 338 333 322 337 327 330 325 324 324 324 321 317 318 318 318 319 319 321 321 321 318
104 101 98 66 88 68 358 337 315 311 307 293 300 299 307 315 324 320 320 332 320 326 325 330 330 320 322 316 317 318 316 315 316 319 317 316 316 315
91 77 76 62 29 0 302 294 295 310 293 291 295 300 305 306 302 317 319 306 318 321 330 319 310 319 318 317 317 313 312 324 319 317 315 314 312 311
114 97 70 60 56 18 343 343 333 316 315 304 302 304 302 309 316 312 304 322 314 307 312 314 317 312 306 314 305 307 319 318 316 313 313 311 309 313
101 103 115 179 85 312 313 303 301 304 309 308 310 308 307 321 319 319 318 312 314 298 318 299 299 301 306 306 311 314 320 318 313 312 311 308 308 312
96 98 35 80 255 343 311 288 274 278 272 288 289 291 307 316 325 319 313 305 300 307 301 296 308 305 304 303 317 319 312 310 317 318 316 308 303 306
86 50 352 339 38 338 323 309 301 293 283 287 306 308 310 323 314 308 309 302 291 295 303 299 316 302 307 312 306 308 316 316 314 311 311 311 307 307
97 63 354 319 4 330 309 295 322 314 304 267 269 276 283 290 292 299 297 299 299 304 331 300 308 308 301 297 292 308 310 308 312 311 311 309 310 306
119 195 200 280 323 317 303 309 306 314 337 317 305 301 303 298 303 274 282 290 298 303 286 310 308 321 306 292 308 297 304 307 309 311 311 309 309 310
297 297 310 307 315 306 303 304 301 324 308 302 292 301 310 295 301 308 301 299 299 290 297 304 304 299 279 303 301 307 305 309 305 303 308 309 310 311
295 287 287 318 306 308 307 300 309 308 295 290 299 295 287 292 296 317 311 292 280 286 306 303 290 295 300 299 300 306 304 299 304 303 304 311 311 305
305 321 305 294 298 300 307 315 307 285 288 298 288 290 305 335 319 299 292 289 287 284 285 280 275 280 285 287 295 305 308 308 298 298 305 307 303 303
262 291 301 300 291 287 291 294 315 325 309 310 332 328 319 315 307 306 306 307 298 289 281 274 280 294 290 290 293 299 296 288 302 303 303 304 304 304
321 295 306 286 294 313 323 344 352 344 326 307 296 295 293 293 292 295 292 291 292 305 306 302 292 266 258 275 283 283 289 288 301 304 313 306 306 308
296 281 273 324 326 335 349 313 306 306 308 319 304 297 298 297 291 288 289 298 291 293 298 298 299 296 281 258 263 284 299 297 304 304 301 298 306 322
272 315 330 314 322 332 312 309 309 317 315 297 292 292 286 286 310 296 283 278 278 285 285 287 291 292 299 297 270 285 296 300 299 295 295 306 317 312
348 319 340 342 331 316 300 297 303 301 294 292 292 304 311 295 291 288 293 292 285 283 286 290 292 290 286 296 307 302 282 273 291 301 307 302 286 298
336 340 323 307 299 302 293 285 282 285 293 299 301 294 290 294 290 288 287 297 301 297 290 291 289 295 293 287 282 292 296 296 286 285 299 301 304 301
335 307 300 299 292 288 289 294 290 289 287 289 291 290 288 283 282 284 284 289 291 285 283 287 291 286 269 268 277 290 292 301 307 319 287 273 302 302
276 294 299 302 297 289 277 278 293 307 305 296 291 292 288 282 281 281 283 282 281 283 292 295 290 279 264 270 281 285 287 289 293 321 311 308 278 284